When you browse on this site, cookies collect data to enhance your experience and personalize the content and advertising you see.
Visit our Privacy Policy to learn more. By continuing to use the site, you agree to this use of cookies and data.
  • în România
  • Lista ţărilor
  • Pe 7 zile
  • Temperatura apei
  • Hartă satelitară
  • Meteo pe hartă
  • Widget-uri
  • user-avatar
    Intrare

    Meteo pe oră la Salta

    Astăzi, 23 Februarie, Sâmbătă

    Timp Temperatura Precipitaţii Vânt Presiune Umiditate
    00:00 +23°C° 0 mm 1 m/s 651 mmHg 57%
    01:00 +23°C° 0 mm 1 m/s 651 mmHg 57%
    02:00 +22°C° 0 mm 1 m/s 650 mmHg 59%
    03:00 +22°C° 0 mm 1 m/s 649 mmHg 59%
    04:00 +22°C° 0 mm 1 m/s 649 mmHg 59%
    05:00 +21°C° 0 mm 1 m/s 649 mmHg 59%
    06:00 +23°C° 0 mm 1 m/s 649 mmHg 55%
    07:00 +25°C° 0 mm 1 m/s 650 mmHg 50%
    08:00 +28°C° 0 mm 1 m/s 651 mmHg 46%
    09:00 +29°C° 0 mm 2 m/s 651 mmHg 42%
    10:00 +31°C° 0 mm 3 m/s 651 mmHg 39%
    11:00 +34°C° 0 mm 3 m/s 651 mmHg 35%
    12:00 +35°C° 0 mm 4 m/s 650 mmHg 33%
    13:00 +35°C° 0 mm 4 m/s 650 mmHg 31%
    14:00 +36°C° 0 mm 4 m/s 649 mmHg 29%
    15:00 +36°C° 0 mm 4 m/s 649 mmHg 30%
    16:00 +35°C° 0 mm 4 m/s 648 mmHg 31%
    17:00 +35°C° 0 mm 4 m/s 647 mmHg 31%
    18:00 +31°C° 0.2 mm 3 m/s 647 mmHg 39%
    19:00 +28°C° 0.2 mm 2 m/s 647 mmHg 46%
    20:00 +26°C° 0.2 mm 2 m/s 646 mmHg 53%
    21:00 +25°C° 0.1 mm 1 m/s 647 mmHg 55%
    22:00 +25°C° 0.1 mm 1 m/s 647 mmHg 56%
    23:00 +22°C° 0.1 mm 0 m/s 647 mmHg 58%

    Mâine, 24 Februarie, Duminică

    Timp Temperatura Precipitaţii Vânt Presiune Umiditate
    00:00 +24°C° 0 mm 1 m/s 647 mmHg 59%
    01:00 +23°C° 0 mm 1 m/s 646 mmHg 60%
    02:00 +23°C° 0 mm 1 m/s 646 mmHg 61%
    03:00 +23°C° 0 mm 1 m/s 645 mmHg 62%
    04:00 +22°C° 0 mm 1 m/s 645 mmHg 62%
    05:00 +22°C° 0 mm 1 m/s 645 mmHg 63%
    06:00 +24°C° 0 mm 1 m/s 646 mmHg 59%
    07:00 +25°C° 0 mm 1 m/s 647 mmHg 54%
    08:00 +27°C° 0 mm 1 m/s 648 mmHg 50%
    09:00 +29°C° 0 mm 1 m/s 649 mmHg 45%
    10:00 +32°C° 0 mm 2 m/s 649 mmHg 39%
    11:00 +35°C° 0 mm 3 m/s 650 mmHg 34%
    12:00 +35°C° 0 mm 3 m/s 650 mmHg 33%
    13:00 +36°C° 0 mm 3 m/s 649 mmHg 33%
    14:00 +36°C° 0 mm 3 m/s 649 mmHg 32%
    15:00 +35°C° 0.2 mm 3 m/s 649 mmHg 36%
    16:00 +34°C° 0.2 mm 3 m/s 648 mmHg 40%
    17:00 +33°C° 0.2 mm 3 m/s 647 mmHg 43%
    18:00 +30°C° 1 mm 2 m/s 647 mmHg 55%
    19:00 +27°C° 1 mm 2 m/s 647 mmHg 67%
    20:00 +25°C° 1 mm 1 m/s 647 mmHg 78%
    21:00 +24°C° 2.7 mm 1 m/s 647 mmHg 81%
    22:00 +24°C° 2.7 mm 1 m/s 648 mmHg 84%
    23:00 +23°C° 2.7 mm 1 m/s 648 mmHg 87%

    Poimâine, 25 Februarie, Luni

    Timp Temperatura Precipitaţii Vânt Presiune Umiditate
    00:00 +23°C° 2.3 mm 1 m/s 648 mmHg 87%
    01:00 +22°C° 2.3 mm 1 m/s 647 mmHg 87%
    02:00 +22°C° 2.3 mm 1 m/s 647 mmHg 87%
    03:00 +21°C° 0 mm 1 m/s 647 mmHg 88%
    04:00 +21°C° 0 mm 1 m/s 647 mmHg 89%
    05:00 +20°C° 0 mm 1 m/s 647 mmHg 89%
    06:00 +21°C° 0.1 mm 1 m/s 648 mmHg 86%
    07:00 +22°C° 0.1 mm 1 m/s 649 mmHg 83%
    08:00 +23°C° 0.1 mm 2 m/s 650 mmHg 80%
    09:00 +24°C° 0.2 mm 2 m/s 650 mmHg 79%
    10:00 +25°C° 0.2 mm 2 m/s 650 mmHg 77%
    11:00 +25°C° 0.2 mm 3 m/s 651 mmHg 76%
    12:00 +25°C° 1.3 mm 3 m/s 650 mmHg 78%
    13:00 +25°C° 1.3 mm 3 m/s 650 mmHg 80%
    14:00 +25°C° 1.3 mm 3 m/s 650 mmHg 82%
    15:00 +22°C° 0.6 mm 3 m/s 649 mmHg 84%
    16:00 +21°C° 0.6 mm 2 m/s 649 mmHg 86%
    17:00 +20°C° 0.6 mm 2 m/s 648 mmHg 89%
    18:00 +20°C° 0.1 mm 2 m/s 649 mmHg 90%
    19:00 +19°C° 0.1 mm 2 m/s 649 mmHg 91%
    20:00 +20°C° 0.1 mm 1 m/s 650 mmHg 92%
    21:00 +19°C° 0.1 mm 1 m/s 651 mmHg 91%
    22:00 +19°C° 0.1 mm 1 m/s 651 mmHg 90%
    23:00 +18°C° 0.1 mm 1 m/s 652 mmHg 90%

    26 Februarie, Marţi

    Timp Temperatura Precipitaţii Vânt Presiune Umiditate
    00:00 +18°C° 0 mm 1 m/s 652 mmHg 88%
    01:00 +18°C° 0 mm 1 m/s 652 mmHg 87%
    02:00 +16°C° 0 mm 1 m/s 651 mmHg 85%
    03:00 +16°C° 0 mm 1 m/s 652 mmHg 85%
    04:00 +16°C° 0 mm 1 m/s 652 mmHg 85%
    05:00 +16°C° 0 mm 1 m/s 652 mmHg 85%
    06:00 +16°C° 0.1 mm 1 m/s 652 mmHg 84%
    07:00 +16°C° 0.1 mm 1 m/s 653 mmHg 84%
    08:00 +18°C° 0.1 mm 1 m/s 653 mmHg 84%
    09:00 +19°C° 0 mm 1 m/s 653 mmHg 77%
    10:00 +21°C° 0 mm 1 m/s 654 mmHg 70%
    11:00 +23°C° 0 mm 2 m/s 654 mmHg 62%
    12:00 +23°C° 0.1 mm 2 m/s 653 mmHg 63%
    13:00 +23°C° 0.1 mm 2 m/s 652 mmHg 63%
    14:00 +23°C° 0.1 mm 2 m/s 652 mmHg 64%
    15:00 +23°C° 0.1 mm 2 m/s 651 mmHg 65%
    16:00 +21°C° 0.1 mm 2 m/s 651 mmHg 66%
    17:00 +21°C° 0.1 mm 2 m/s 650 mmHg 67%
    18:00 +21°C° 0.1 mm 1 m/s 650 mmHg 73%
    19:00 +20°C° 0.1 mm 1 m/s 651 mmHg 79%
    20:00 +19°C° 0.1 mm 1 m/s 651 mmHg 85%
    21:00 +18°C° 0.1 mm 1 m/s 651 mmHg 87%
    22:00 +16°C° 0.1 mm 0 m/s 651 mmHg 90%
    23:00 +15°C° 0.1 mm 0 m/s 651 mmHg 92%

    27 Februarie, Miercuri

    Timp Temperatura Precipitaţii Vânt Presiune Umiditate
    00:00 +15°C° 0 mm 0 m/s 651 mmHg 92%
    01:00 +14°C° 0 mm 0 m/s 650 mmHg 92%
    02:00 +14°C° 0 mm 0 m/s 650 mmHg 92%
    03:00 +14°C° 0 mm 0 m/s 650 mmHg 92%
    04:00 +13°C° 0 mm 0 m/s 649 mmHg 92%
    05:00 +13°C° 0 mm 0 m/s 649 mmHg 93%
    06:00 +15°C° 0 mm 1 m/s 650 mmHg 88%
    07:00 +16°C° 0 mm 1 m/s 651 mmHg 83%
    08:00 +19°C° 0 mm 1 m/s 652 mmHg 78%
    09:00 +21°C° 0 mm 1 m/s 652 mmHg 70%
    10:00 +23°C° 0 mm 2 m/s 653 mmHg 62%
    11:00 +25°C° 0 mm 2 m/s 653 mmHg 54%
    12:00 +26°C° 0 mm 2 m/s 653 mmHg 52%
    13:00 +27°C° 0 mm 2 m/s 652 mmHg 49%
    14:00 +28°C° 0 mm 3 m/s 652 mmHg 47%
    15:00 +27°C° 0 mm 3 m/s 652 mmHg 48%
    16:00 +27°C° 0 mm 3 m/s 651 mmHg 48%
    17:00 +27°C° 0 mm 3 m/s 651 mmHg 49%
    18:00 +24°C° 0 mm 2 m/s 651 mmHg 59%
    19:00 +22°C° 0 mm 1 m/s 651 mmHg 69%
    20:00 +20°C° 0 mm 1 m/s 651 mmHg 78%
    21:00 +19°C° 0 mm 1 m/s 651 mmHg 80%
    22:00 +17°C° 0 mm 0 m/s 652 mmHg 81%
    23:00 +16°C° 0 mm 0 m/s 652 mmHg 83%

    28 Februarie, Joi

    Timp Temperatura Precipitaţii Vânt Presiune Umiditate
    00:00 +16°C° 0 mm 0 m/s 652 mmHg 84%
    01:00 +16°C° 0 mm 0 m/s 652 mmHg 84%
    02:00 +16°C° 0 mm 0 m/s 652 mmHg 85%
    03:00 +15°C° 0 mm 0 m/s 652 mmHg 86%
    04:00 +15°C° 0 mm 0 m/s 652 mmHg 87%
    05:00 +15°C° 0 mm 0 m/s 652 mmHg 87%
    06:00 +16°C° 0 mm 0 m/s 652 mmHg 81%
    07:00 +20°C° 0 mm 1 m/s 653 mmHg 74%
    08:00 +21°C° 0 mm 1 m/s 654 mmHg 68%
    09:00 +23°C° 0 mm 1 m/s 654 mmHg 62%
    10:00 +25°C° 0 mm 2 m/s 654 mmHg 56%
    11:00 +27°C° 0 mm 3 m/s 654 mmHg 50%
    12:00 +27°C° 0 mm 3 m/s 654 mmHg 48%
    13:00 +28°C° 0 mm 3 m/s 653 mmHg 46%
    14:00 +29°C° 0 mm 3 m/s 653 mmHg 44%
    15:00 +29°C° 0 mm 3 m/s 652 mmHg 44%
    16:00 +28°C° 0 mm 3 m/s 652 mmHg 45%
    17:00 +28°C° 0 mm 3 m/s 651 mmHg 46%
    18:00 +25°C° 0 mm 3 m/s 651 mmHg 53%
    19:00 +23°C° 0 mm 2 m/s 651 mmHg 60%
    20:00 +21°C° 0 mm 1 m/s 651 mmHg 67%
    21:00 +21°C° 0 mm 1 m/s 651 mmHg 69%
    22:00 +20°C° 0 mm 1 m/s 651 mmHg 72%
    23:00 +17°C° 0 mm 0 m/s 651 mmHg 74%
    Arată mai mult